Location: Unspecified
(0.0000°N, 0.0000°E)
Time: 07:23:19
(UTC+02:00)

ITAMSAT 1 - Visible Passes

Search period start: 24 June 2018 00:00
Search period end: 04 July 2018 00:00
Orbit: 784 x 796 km, 98.9° (Epoch: 23 June)

Date Brightness Start Highest point End Pass type
(mag) Time Alt. Az. Time Alt. Az. Time Alt. Az.
24 Jun 10.0 05:00:51 10° NE 05:03:17 19° E 05:03:17 19° E visible
24 Jun 8.8 06:39:46 10° NNW 06:43:54 24° WNW 06:44:01 24° W visible
25 Jun 7.8 06:09:30 10° N 06:14:14 54° WNW 06:14:14 54° WNW visible
26 Jun 8.2 05:40:07 10° NNE 05:44:27 56° ENE 05:44:27 56° ENE visible
27 Jun 9.6 05:11:33 10° NE 05:14:40 25° ENE 05:14:40 25° ENE visible
27 Jun 9.1 06:51:43 10° NW 06:55:09 18° WNW 06:55:24 18° W visible
28 Jun 10.6 04:44:38 10° E 04:44:53 10° E 04:44:53 10° E visible
28 Jun 8.2 06:21:00 10° N 06:25:37 40° WNW 06:25:37 40° WNW visible
29 Jun 7.8 05:51:18 10° NNE 05:55:50 68° NNE 05:55:50 68° NNE visible
30 Jun 9.1 05:22:24 10° NE 05:26:02 34° ENE 05:26:02 34° ENE visible
30 Jun 9.4 07:04:06 10° NW 07:06:22 13° WNW 07:06:46 13° W visible
01 Jul 10.3 04:54:38 10° ENE 04:56:15 15° E 04:56:15 15° E visible
01 Jul 8.5 06:32:36 10° NNW 06:36:59 30° WNW 06:36:59 30° WNW visible
02 Jul 7.7 06:02:36 10° N 06:07:12 63° NW 06:07:12 63° NW visible
03 Jul 8.6 05:33:25 10° NNE 05:37:25 45° ENE 05:37:25 45° ENE visible
